Location: Bieujac
(44.5398°N, 0.1549°W)
Time: 13:31:45
(UTC+00:00)

NOSS 3-3 (A) - Visible Passes

Search period start: 18 February 2020 00:00
Search period end: 28 February 2020 00:00
Orbit: 841 x 1372 km, 63.4° (Epoch: 08 February)

Date Brightness Start Highest point End Pass type
(mag) Time Alt. Az. Time Alt. Az. Time Alt. Az.
18 Feb 6.5 04:54:26 10° SE 04:58:04 17° ESE 05:01:52 10° ENE visible
19 Feb 4.5 05:57:27 10° SSW 06:03:12 63° ESE 06:09:37 10° NE visible
20 Feb 5.3 05:13:20 10° S 05:18:39 39° ESE 05:24:32 10° NE visible
21 Feb 6.0 04:29:47 10° SSE 04:34:16 24° ESE 04:39:07 10° ENE visible
21 Feb 4.0 06:18:36 10° SW 06:24:27 66° NW 06:31:05 10° NE visible
22 Feb 6.5 03:47:19 10° SE 03:50:02 13° ESE 03:52:51 10° ENE visible
22 Feb 4.0 05:33:48 10° SSW 05:39:39 83° SE 05:46:15 10° NE visible
23 Feb 4.6 04:49:24 10° SSW 04:55:01 52° ESE 05:01:16 10° NE visible
24 Feb 5.4 04:06:47 16° SSE 04:10:33 32° ESE 04:16:05 10° NE visible
24 Feb 4.2 05:55:18 10° WSW 06:01:05 52° NW 06:07:37 10° NNE visible
25 Feb 6.0 03:24:10 16° SE 03:26:13 19° ESE 03:30:26 10° ENE visible
25 Feb 3.9 05:11:39 18° SW 05:16:11 78° NW 05:22:49 10° NE visible
26 Feb 6.5 02:41:24 10° ESE 02:42:01 10° ESE 02:42:49 10° E visible
26 Feb 4.1 04:28:53 35° SSW 04:31:26 70° ESE 04:37:56 10° NE visible
27 Feb 4.7 03:45:58 40° SE 03:46:52 43° ESE 03:52:53 10° NE visible
27 Feb 4.5 05:33:26 17° WSW 05:37:46 42° NW 05:44:09 10° NNE visible
